Weather Roundup
Issued by NWS

Home | Current Version | Previous Version | Graphics & Text | Print | Product List | Glossary Off
Versions: 1 2 3 4 5 6 7 8 9 10 11 12 13 14 15 16 17 18 19 20 21 22 23 24 25 26 27 28 29 30 31 32 33 34 35 36 37 38 39 40 41 42 43 44 45 46 47 48 49 50

000
NZUS93 KARX 271059
HRRWXR

CURRENT HOURLY OBSERVATIONS ACROSS
MUCH OF THE UPPER MISSISSIPPI VALLEY
NATIONAL WEATHER SERVICE LA CROSSE WI
600 AM CDT WED AUG 27 2014


...SOUTHEAST MINNESOTA...


CITY           SKY/WX    TMP DP  RH WIND       PRES   REMARKS
ROCHESTER      CLOUDY    62  56  80 NE6       30.19S
ROCHESTER/MAYO PTSUNNY   61  55  78 NE5       30.18F
WINONA         CLOUDY    61  61 100 CALM      30.18R
AUSTIN         PTCLDY    57  55  94 CALM      30.17S
ALBERT LEA     CLEAR     57  57 100 CALM      30.17F
DODGE CENTER   CLOUDY    61  57  88 NE3       30.18S
PRESTON        PTCLDY    58  58 100 CALM      30.19R
OWATONNA       MOCLDY    61  57  88 NE5       30.18S
FARIBAULT      CLOUDY    63  55  77 CALM      30.18S
$$

...ELSEWHERE IN MINNESOTA...


CITY           SKY/WX    TMP DP  RH WIND       PRES   REMARKS
MINNEAPOLIS    MOCLDY    61  56  83 NE5       30.19R
INTNL FALLS    MOCLDY    40  39  97 CALM      30.18F
DULUTH         PTCLDY    51  47  86 NW5       30.20S
RED WING       MOCLDY    59  57  94 N5        30.17S
REDWOOD FALLS  MOCLDY    59  56  89 E3        30.17F
MANKATO        CLOUDY    63  54  72 E8        30.17S
WORTHINGTON    CLEAR     55  54  94 E3        30.18S
FAIRMONT       CLEAR     55  52  88 CALM      30.17S
$$

...SOUTHWEST WISCONSIN...


CITY           SKY/WX    TMP DP  RH WIND       PRES   REMARKS
LA CROSSE      MOCLDY    63  58  83 NW3       30.17R
PRAIRIE DU CHI CLEAR     59  56  88 CALM      30.17S
BOSCOBEL       CLOUDY    62  59  90 CALM      30.17S
LONE ROCK      NOT AVBL
PLATTEVILLE    CLEAR     59  58  96 N3        30.18R
FORT MC COY    LGT RAIN  56  56  97 CALM      30.18S
VIROQUA        CLOUDY    60  60 100 CALM      30.18S
WIS DELLS      MOCLDY    60  54  79 CALM      30.17R
$$

...ELSEWHERE IN WISCONSIN...


CITY           SKY/WX    TMP DP  RH WIND       PRES   REMARKS
MILWAUKEE      MOCLDY    64  56  75 N3        30.14S
MADISON        PTCLDY    60  57  89 CALM      30.17R
GREEN BAY      PTCLDY    58  55  90 CALM      30.15F
EAU CLAIRE     MOCLDY    58  57  97 N3        30.18R
BLACK RVR FLS  PTSUNNY   58  58 100 N3        30.17R
MEDFORD        FOG       52  52  99 CALM      30.18S VSB 1/2
WAUSAU         MOCLDY    57  55  93 CALM      30.16R
WIS RAPIDS     MOCLDY    60  54  80 CALM      30.19R
MARSHFIELD     MOCLDY    57  55  93 CALM      30.18R
RICE LAKE      PTCLDY    55  53  92 CALM      30.21S
$$

...NORTHEAST IOWA...


CITY           SKY/WX    TMP DP  RH WIND       PRES   REMARKS
WATERLOO       CLEAR     60  57  89 NE5       30.14F
DUBUQUE        CLEAR     61  59  93 NE7       30.17S
DECORAH        CLEAR     57  57 100 CALM      30.17F
MASON CITY     CLEAR     55  55 100 NE5       30.18F
CHARLES CITY   CLEAR     59  55  88 NE6       30.17F
OELWEIN        CLEAR     59  59 100 E5        30.17S
$$

...ELSEWHERE IN IOWA...


CITY           SKY/WX    TMP DP  RH WIND       PRES   REMARKS
DES MOINES     MOCLDY    69  61  75 E8        30.12R
IOWA CITY      MOCLDY    67  62  84 NE7       30.13S
FORT DODGE     CLOUDY    63  57  82 NE7       30.14F
MARSHALLTOWN   MOCLDY    63  60  90 E5        30.14F
CEDAR RAPIDS   LGT RAIN  66  62  87 NE9       30.13S
$$

...NORTHERN ILLINOIS...


CITY           SKY/WX    TMP DP  RH WIND       PRES   REMARKS
CHICAGO-OHARE  MOCLDY    68  62  81 N5        30.12F
DUPAGE         MOCLDY    65  62  90 N6        30.13R
CHICAGO-MIDWAY MOCLDY    72  64  76 E6        30.12S
MOLINE         PTCLDY    69  63  81 NE7       30.12S
ROCKFORD       MOCLDY    65  57  75 N7        30.17R
STERLING       MOCLDY    66  61  82 NE8       30.15R
PEORIA         MOCLDY    73  65  75 NE8       30.10S
$$

NOTE: "FAIR" INDICATES FEW OR NO CLOUDS BELOW 12,000 FEET WITH NO
SIGNIFICANT WEATHER AND/OR OBSTRUCTIONS TO VISIBILITY. WIND
SPEEDS ARE IN MILES-PER-HOUR.



USA.gov is the U.S. government's official web portal to all federal, state and local government web resources and services.